Location: Eschertshofen
(49.3064°N, 11.5756°E)
Time: 13:07:01
(UTC+00:00)

Cosmos 2151 Rocket - Pass Details

Date: 18 September 2020
Orbit: 618 x 642 km, 82.5° (Epoch: 22 October)

Event Time Altitude Azimuth Distance (km) Brightness Sun altitude
Rises 18:44:29 0° 175° (S) 2,901 6.8 -14.4°
Reaches altitude 10° 18:46:44 10° 171° (S) 2,003 5.9 -14.7°
Maximum altitude 18:51:03 53° 94° (E) 781 3.7 -15.4°
Drops below altitude 10° 18:55:26 10° 18° (NNE) 2,034 6.2 -16.0°
Sets 18:57:44 0° 14° (NNE) 2,951 7.1 -16.4°
